Location: Copper Breaks State Park
(34.1132°N, 99.7492°W)
Time: 01:11:23
(UTC-05:00)

Amateur Radio Satellites - All Passes

Search period start: 31 August 2016 00:41
Search period end: 01 September 2016 00:41
Location: Copper Breaks State Park, 34.1132°N, 99.7492°W

Satellite Date Start Highest point End Downlink Frequencies (MHz)
Time Altitude Azimuth
UKube-1 31 Aug 00:41:39 00:45:34 35° 72° (ENE) 00:49:31 .
CUSAT 1 31 Aug 00:46:28 00:48:44 19° 289° (WNW) 00:51:22 437.405
AISAT 31 Aug 00:51:51 00:56:17 80° 257° (WSW) 01:00:47 437.250
RS-15 31 Aug 00:52:30 01:03:07 48° 108° (ESE) 01:14:16 29.354- 29.394
BUGSAT 1 31 Aug 00:55:26 00:57:55 15° 94° (E) 01:00:21 437.445
TIGRISAT 31 Aug 00:58:25 01:01:27 19° 291° (WNW) 01:04:27 435.000
ESTCUBE 1 31 Aug 00:59:09 01:03:14 35° 262° (W) 01:07:21 437.505/2401.250
JAS-2 31 Aug 01:00:43 01:07:19 37° 98° (E) 01:14:19 435.910
PHONESAT 2.4 31 Aug 01:03:31 01:06:32 86° 151° (SSE) 01:09:33 2401.200-2431.200
GONETS M04 31 Aug 01:13:55 01:21:43 36° 274° (W) 01:29:30
QB50P1 31 Aug 01:15:37 01:19:50 90° 338° (NNW) 01:24:01 145.935-145.965
50 SAT 31 Aug 01:24:18 01:27:19 26° 263° (W) 01:30:21 437.505
POPSAT HIP 1 31 Aug 01:26:01 01:30:13 68° 284° (WNW) 01:34:21 437.405
SPROUT 31 Aug 01:31:52 01:36:06 58° 259° (W) 01:40:22 437.525
CUBEBUG 1 31 Aug 01:32:24 01:35:52 23° 264° (W) 01:39:23 437.445
TISAT 1 31 Aug 01:38:08 01:41:49 30° 72° (ENE) 01:45:32 437.305
VELOX 1 31 Aug 01:39:52 01:43:25 23° 264° (W) 01:47:00 145.980
O/OREOS (USA 219) 31 Aug 01:40:33 01:42:49 14° 261° (W) 01:45:05 437.305
DX 1 31 Aug 01:44:17 01:48:07 30° 262° (W) 01:51:59 434.975-435.025
Cosmos 2499 31 Aug 01:45:47 01:50:54 22° 275° (W) 01:56:08 435.465 / 435.565
DUCHIFAT 1 31 Aug 01:49:34 01:53:27 38° 287° (WNW) 01:57:19 145.980
QB50P2 31 Aug 01:57:59 02:01:27 26° 289° (WNW) 02:04:56 145.880/145.840
POLYITAN 1 31 Aug 02:00:29 02:03:56 25° 289° (WNW) 02:07:23 437.675
NANOSAT C BR1 31 Aug 02:05:41 02:09:02 24° 290° (WNW) 02:12:22 145.865
Oscar 19 31 Aug 02:12:59 02:17:04 23° 95° (E) 02:21:07 437.125/150
UKube-1 31 Aug 02:19:00 02:21:40 16° 265° (W) 02:24:21 .
ITUPSAT 1 31 Aug 02:25:11 02:28:31 19° 67° (ENE) 02:31:51 437.325
BUGSAT 1 31 Aug 02:29:42 02:33:20 31° 288° (WNW) 02:36:55 437.445
PHONESAT 2.4 31 Aug 02:40:27 02:43:05 26° 351° (N) 02:45:42 2401.200-2431.200
JAS-2 31 Aug 02:45:41 02:52:10 40° 290° (WNW) 02:59:11 435.910
SWISSCUBE 31 Aug 02:54:47 02:59:19 46° 73° (ENE) 03:03:50 437.505
RS-15 31 Aug 03:04:31 03:15:29 48° 309° (NW) 03:27:06 29.354- 29.394
BEESAT 31 Aug 03:11:18 03:15:59 63° 74° (ENE) 03:20:41 436.000
TISAT 1 31 Aug 03:14:31 03:17:27 18° 265° (W) 03:20:25 437.305
ITAMSAT 1 31 Aug 03:35:43 03:39:13 18° 94° (E) 03:42:42 435.822/435.867
Oscar 19 31 Aug 03:51:42 03:56:23 35° 290° (WNW) 04:01:03 437.125/150
Gurwin Techsat 1B 31 Aug 03:52:17 03:57:37 80° 284° (WNW) 04:02:54 435.225
KKS-1 31 Aug 03:57:03 04:00:11 19° 68° (ENE) 04:03:19 437.445
ITUPSAT 1 31 Aug 04:01:40 04:06:03 36° 261° (W) 04:10:27 437.325
AO-85 31 Aug 04:09:50 04:13:35 20° 109° (ESE) 04:17:15 145.980
PHONESAT 2.4 31 Aug 04:17:22 04:19:55 25° 7° (N) 04:22:28 2401.200-2431.200
STARS 31 Aug 04:22:49 04:25:41 17° 68° (ENE) 04:28:34 437.465
MOZHAYETS 4 31 Aug 04:28:43 04:33:11 57° 75° (ENE) 04:37:39
SWISSCUBE 31 Aug 04:34:40 04:37:17 15° 266° (W) 04:39:54 437.505
AO-7 31 Aug 04:45:14 04:53:01 43° 101° (E) 05:00:45 29.400- 29.500
BEESAT 31 Aug 04:53:18 04:54:06 10° 268° (W) 04:54:54 436.000
Cosmos 2491 31 Aug 04:54:01 05:00:58 25° 71° (ENE) 05:07:50 435.465 / 435.565
ITAMSAT 1 31 Aug 05:13:56 05:18:49 44° 288° (WNW) 05:23:42 435.822/435.867
RS-15 31 Aug 05:25:36 05:32:15 16° 339° (NNW) 05:39:03 29.354- 29.394
KKS-1 31 Aug 05:32:26 05:36:28 33° 262° (W) 05:40:32 437.445
AO-85 31 Aug 05:48:37 05:53:45 48° 302° (WNW) 05:58:40 145.980
PHONESAT 2.4 31 Aug 05:53:32 05:56:32 75° 24° (NNE) 05:59:31 2401.200-2431.200
STARS 31 Aug 05:57:39 06:01:43 36° 261° (W) 06:05:49 437.465
CUBESAT XI-V 31 Aug 05:59:00 06:03:33 65° 76° (ENE) 06:08:09 437.345
YUBILEINY 31 Aug 06:01:33 06:09:06 33° 85° (E) 06:16:37 435.215
MOZHAYETS 4 31 Aug 06:09:39 06:10:37 11° 268° (W) 06:11:37
NOAA 15 31 Aug 06:32:53 06:35:26 13° 93° (E) 06:37:58 137.62
AO-7 31 Aug 06:38:11 06:45:35 38° 297° (WNW) 06:52:59 29.400- 29.500
CUTE-I 31 Aug 06:44:18 06:46:52 13° 92° (E) 06:49:25 437.470
HORYU 2 31 Aug 06:48:43 06:53:09 86° 281° (W) 06:57:33 437.375
Cosmos 2491 31 Aug 06:49:37 06:58:17 62° 269° (W) 07:06:55 435.465 / 435.565
BRITE-PL 31 Aug 07:05:48 07:11:26 61° 100° (E) 07:16:47 437.365/2234.400
STRAND 1 31 Aug 07:16:19 07:20:13 23° 68° (ENE) 07:24:07 437.568
PHONESAT 2.4 31 Aug 07:30:48 07:32:35 15° 217° (SW) 07:34:21 2401.200-2431.200
Cosmos 2504 31 Aug 07:37:33 07:45:38 51° 91° (E) 07:53:11 435.465 / 435.565
RS-15 31 Aug 07:46:12 07:52:33 15° 18° (NNE) 07:58:55 29.354- 29.394
DOVE 4 31 Aug 07:47:33 07:51:40 27° 95° (E) 07:55:34 437.250
NOAA 18 31 Aug 07:55:12 08:00:37 63° 102° (ESE) 08:06:00 137.9125
YUBILEINY 31 Aug 07:57:08 08:05:30 47° 282° (WNW) 08:13:56 435.215
ISS 31 Aug 07:57:49 08:01:05 77° 316° (NW) 08:04:22 145.825
GOMX 1 31 Aug 08:00:05 08:05:25 88° 282° (WNW) 08:10:23 467.674
NOAA 15 31 Aug 08:10:18 08:15:32 61° 286° (WNW) 08:20:45 137.62
Cubesat XI-IV 31 Aug 08:11:21 08:16:41 78° 284° (WNW) 08:21:59 437.490
LilacSat-2 31 Aug 08:18:13 08:21:45 41° 286° (WNW) 08:25:18 437.200
CUTE-I 31 Aug 08:22:01 08:27:14 60° 286° (WNW) 08:32:27 437.470
HO-68 31 Aug 08:25:47 08:30:53 21° 94° (E) 08:35:56 435.675
SEEDS 31 Aug 08:44:44 08:46:43 13° 93° (E) 08:48:42 437.485
PRISM 31 Aug 08:45:02 08:47:33 16° 68° (ENE) 08:50:05 437.425
SO-50 31 Aug 08:45:13 08:49:45 61° 59° (ENE) 08:54:09 436.795
BRITE-PL 31 Aug 08:45:52 08:49:15 16° 295° (WNW) 08:52:34 437.365/2234.400
BEESAT 2 31 Aug 08:46:17 08:47:40 12° 108° (ESE) 08:49:03 435.950
BEESAT 3 31 Aug 08:53:55 08:57:23 31° 113° (ESE) 09:00:54 437.485
STRAND 1 31 Aug 08:54:29 08:59:08 35° 262° (W) 09:03:48 437.568
AAUSAT CUBESAT 2 31 Aug 09:04:52 09:06:13 11° 92° (E) 09:07:32 437.432
JUGNU 31 Aug 09:06:10 09:08:08 12° 164° (SSE) 09:10:06 437.505
CANX-2 31 Aug 09:12:39 09:16:48 51° 100° (E) 09:20:57 2200.000
COMPASS 1 31 Aug 09:15:19 09:18:30 21° 95° (E) 09:21:41 437.405
CUTE 1.7 + AOD 2 31 Aug 09:17:57 09:22:05 51° 100° (E) 09:26:14 437.475
DOVE 4 31 Aug 09:25:14 09:29:13 25° 291° (WNW) 09:33:00 437.250
CUBEBUG 2 31 Aug 09:27:33 09:30:40 20° 95° (E) 09:33:44 437.445
AIST 1 31 Aug 09:31:28 09:35:40 51° 93° (E) 09:39:55
Cosmos 2504 31 Aug 09:32:13 09:39:08 28° 285° (WNW) 09:45:44 435.465 / 435.565
CINEMA 3 31 Aug 09:35:59 09:40:22 70° 284° (WNW) 09:44:34 145.822/145.860
ISS 31 Aug 09:37:12 09:38:01 11° 334° (NNW) 09:38:51 145.825
NOAA 18 31 Aug 09:37:43 09:40:41 15° 297° (WNW) 09:43:39 137.9125
CUSAT 1 31 Aug 09:38:34 09:43:37 20° 72° (ENE) 09:49:05 437.405
RS-15 31 Aug 09:58:14 10:09:50 43° 49° (NE) 10:21:09 29.354- 29.394
HO-68 31 Aug 10:11:55 10:18:57 62° 289° (WNW) 10:25:57 435.675
TIGRISAT 31 Aug 10:16:54 10:19:57 18° 69° (ENE) 10:22:58 435.000
SEEDS 31 Aug 10:18:36 10:22:33 40° 286° (WNW) 10:26:31 437.485
PRISM 31 Aug 10:18:52 10:22:33 32° 262° (W) 10:26:16 437.425
Oscar 11 31 Aug 10:20:36 10:24:35 36° 98° (E) 10:28:34 145.826/435.025
BEESAT 2 31 Aug 10:21:16 10:25:02 43° 302° (WNW) 10:28:51 435.950
SO-50 31 Aug 10:28:48 10:29:35 10° 254° (WSW) 10:30:23 436.795
PCSat 31 Aug 10:30:40 10:33:33 15° 104° (ESE) 10:36:26 145.827
BEESAT 3 31 Aug 10:32:25 10:35:05 18° 308° (NW) 10:37:48 437.485
FUNcube-1 31 Aug 10:33:33 10:37:33 47° 99° (E) 10:41:33 145.935
AAUSAT CUBESAT 2 31 Aug 10:37:52 10:41:52 45° 285° (WNW) 10:45:51 437.432
UNISAT 6 31 Aug 10:45:30 10:49:47 40° 73° (ENE) 10:54:00 437.425
COMPASS 1 31 Aug 10:50:31 10:53:58 25° 289° (WNW) 10:57:25 437.405
CANX-2 31 Aug 10:50:54 10:52:10 11° 294° (WNW) 10:53:26 2200.000
UWE-3 31 Aug 10:52:10 10:56:12 52° 285° (WNW) 11:00:13 435.000/436.395/437.385
JUGNU 31 Aug 10:52:23 10:56:27 19° 174° (S) 11:00:29 437.505
CUTE 1.7 + AOD 2 31 Aug 10:56:07 10:57:27 11° 293° (WNW) 10:58:45 437.475
ZACube-1 31 Aug 10:57:18 11:01:25 77° 284° (WNW) 11:05:34 437.345
CUBEBUG 2 31 Aug 11:03:49 11:07:13 25° 289° (WNW) 11:10:35 437.445
HUMSAT D 31 Aug 11:08:15 11:11:32 23° 96° (E) 11:14:49 437.325/437.525
DANDE 31 Aug 11:12:12 11:18:06 44° 80° (E) 11:25:21 436.750
AIST 1 31 Aug 11:12:39 11:13:34 11° 288° (WNW) 11:14:30
QB50P2 31 Aug 11:14:07 11:14:47 10° 66° (ENE) 11:15:28 145.880/145.840
POLYITAN 1 31 Aug 11:16:27 11:17:17 10° 66° (ENE) 11:18:07 437.675
CUSAT 1 31 Aug 11:18:50 11:25:56 73° 264° (W) 11:33:54 437.405
NANOSAT C BR1 31 Aug 11:20:45 11:21:56 11° 66° (ENE) 11:23:07 145.865
ANTELSAT 31 Aug 11:21:57 11:26:32 77° 258° (WSW) 11:31:04 437.575/2403.000
AIST 2 31 Aug 11:29:59 11:33:35 30° 112° (ESE) 11:37:12 435.215
DELFI C3 31 Aug 11:41:50 11:45:45 53° 284° (WNW) 11:49:39 145.870
TIGRISAT 31 Aug 11:52:07 11:56:20 36° 262° (W) 12:00:30 435.000
Oscar 11 31 Aug 11:57:46 12:00:24 16° 292° (WNW) 12:03:01 145.826/435.025
QB50P1 31 Aug 12:04:10 12:08:09 39° 73° (ENE) 12:12:08 145.935-145.965
RS-15 31 Aug 12:10:46 12:22:39 57° 250° (WSW) 12:34:12 29.354- 29.394
PCSat 31 Aug 12:11:02 12:16:21 60° 298° (WNW) 12:21:44 145.827
FUNcube-1 31 Aug 12:12:07 12:13:20 11° 293° (WNW) 12:14:33 145.935
AUBIESAT-1 31 Aug 12:12:18 12:14:29 15° 97° (E) 12:16:34 437.475
GONETS M04 31 Aug 12:12:43 12:21:08 55° 90° (E) 12:29:38
POPSAT HIP 1 31 Aug 12:14:24 12:18:33 52° 75° (ENE) 12:22:42 437.405
M-CUBED/EXP-1 PRIME 31 Aug 12:20:52 12:24:06 25° 100° (E) 12:27:07 437.505
Cosmos 2499 31 Aug 12:22:54 12:30:40 49° 91° (E) 12:37:53 435.465 / 435.565
UNISAT 6 31 Aug 12:23:51 12:26:35 16° 266° (W) 12:29:18 437.425
DUCHIFAT 1 31 Aug 12:36:57 12:41:12 89° 79° (E) 12:45:28 145.980
SRMSAT 31 Aug 12:37:35 12:41:15 17° 171° (S) 12:44:53 437.500
JUGNU 31 Aug 12:40:39 12:44:48 19° 184° (S) 12:48:56 437.505
HUMSAT D 31 Aug 12:43:52 12:47:01 22° 289° (WNW) 12:50:10 437.325/437.525
QB50P2 31 Aug 12:45:52 12:50:03 57° 259° (W) 12:54:16 145.880/145.840
AISAT 31 Aug 12:46:18 12:49:59 25° 97° (E) 12:53:39 437.250
POLYITAN 1 31 Aug 12:48:21 12:52:33 56° 260° (W) 12:56:45 437.675
NANOSAT C BR1 31 Aug 12:53:00 12:57:09 53° 260° (W) 13:01:20 145.865
JAS-2 31 Aug 12:54:31 12:59:39 65° 74° (ENE) 13:05:09 435.910
ESTCUBE 1 31 Aug 12:54:46 12:59:17 63° 101° (E) 13:03:47 437.505/2401.250
DANDE 31 Aug 12:55:19 13:00:43 29° 268° (W) 13:07:05 436.750
50 SAT 31 Aug 12:55:40 12:58:52 28° 98° (E) 13:02:04 437.505
CUSAT 1 31 Aug 13:05:24 13:07:07 11° 276° (W) 13:08:52 437.405
AIST 2 31 Aug 13:09:01 13:12:04 20° 308° (NW) 13:15:09 435.215
BUGSAT 1 31 Aug 13:14:39 13:18:54 81° 258° (WSW) 13:23:10 437.445
SPROUT 31 Aug 13:21:47 13:25:33 30° 97° (E) 13:29:17 437.525
CUBEBUG 1 31 Aug 13:23:34 13:28:00 87° 100° (E) 13:32:23 437.445
Oscar 19 31 Aug 13:26:21 13:30:23 24° 68° (ENE) 13:34:27 437.125/150
VELOX 1 31 Aug 13:32:33 13:37:02 86° 108° (ESE) 13:41:27 145.980
Gurwin Techsat 1B 31 Aug 13:33:32 13:35:34 12° 63° (ENE) 13:37:36 435.225
DX 1 31 Aug 13:35:31 13:39:51 59° 101° (ESE) 13:44:08 434.975-435.025
QB50P1 31 Aug 13:41:50 13:44:02 14° 267° (W) 13:46:14 145.935-145.965
AUBIESAT-1 31 Aug 13:45:43 13:49:01 27° 294° (WNW) 13:52:07 437.475
POPSAT HIP 1 31 Aug 13:53:56 13:54:34 10° 268° (W) 13:55:12 437.405
M-CUBED/EXP-1 PRIME 31 Aug 13:55:46 13:58:24 18° 297° (WNW) 14:00:54 437.505
O/OREOS (USA 219) 31 Aug 14:07:41 14:12:10 74° 291° (WNW) 14:16:41 437.305
UKube-1 31 Aug 14:07:49 14:12:09 73° 284° (WNW) 14:16:26 .
GONETS M04 31 Aug 14:11:06 14:18:17 28° 288° (WNW) 14:25:34
Cosmos 2499 31 Aug 14:17:16 14:23:53 27° 285° (WNW) 14:30:10 435.465 / 435.565
AISAT 31 Aug 14:22:46 14:26:19 24° 290° (WNW) 14:29:51 437.250
AO-85 31 Aug 14:24:28 14:28:32 50° 58° (ENE) 14:32:20 145.980
SRMSAT 31 Aug 14:25:32 14:29:44 20° 181° (S) 14:33:55 437.500
ISS 31 Aug 14:28:59 14:31:37 22° 34° (NE) 14:34:14 145.825
50 SAT 31 Aug 14:30:13 14:32:09 14° 291° (WNW) 14:34:06 437.505
JUGNU 31 Aug 14:30:30 14:33:06 13° 194° (SSW) 14:35:42 437.505
ESTCUBE 1 31 Aug 14:34:32 14:35:30 11° 295° (WNW) 14:36:30 437.505/2401.250
JAS-2 31 Aug 14:44:01 14:45:23 11° 270° (W) 14:46:46 435.910
ITAMSAT 1 31 Aug 14:50:16 14:53:58 20° 66° (ENE) 14:57:39 435.822/435.867
SPROUT 31 Aug 14:58:17 15:01:15 18° 291° (WNW) 15:04:10 437.525
SWISSCUBE 31 Aug 14:59:54 15:02:47 16° 94° (E) 15:05:39 437.505
TISAT 1 31 Aug 15:00:34 15:04:46 89° 294° (WNW) 15:08:56 437.305
Oscar 19 31 Aug 15:04:48 15:09:28 35° 262° (W) 15:14:11 437.125/150
Gurwin Techsat 1B 31 Aug 15:09:31 15:14:49 73° 257° (WSW) 15:20:09 435.225
DX 1 31 Aug 15:14:37 15:15:28 10° 295° (WNW) 15:16:19 434.975-435.025
BEESAT 31 Aug 15:15:54 15:19:31 21° 96° (E) 15:23:08 436.000
AO-7 31 Aug 15:40:05 15:47:48 43° 65° (ENE) 15:55:29 29.400- 29.500
ISS 31 Aug 16:05:10 16:08:05 30° 229° (SW) 16:10:59 145.825
ITUPSAT 1 31 Aug 16:05:19 16:10:06 76° 102° (ESE) 16:14:52 437.325
SRMSAT 31 Aug 16:14:51 16:18:12 15° 191° (S) 16:21:33 437.500
YUBILEINY 31 Aug 16:19:16 16:21:56 11° 63° (ENE) 16:24:34 435.215
ITAMSAT 1 31 Aug 16:28:13 16:33:05 41° 261° (W) 16:37:58 435.822/435.867
MOZHAYETS 4 31 Aug 16:28:25 16:31:31 18° 94° (E) 16:34:37
SWISSCUBE 31 Aug 16:36:13 16:40:43 43° 288° (WNW) 16:45:12 437.505
BEESAT 31 Aug 16:53:05 16:57:17 32° 289° (WNW) 17:01:29 436.000
KKS-1 31 Aug 17:26:33 17:30:58 61° 101° (ESE) 17:35:20 437.445
AO-7 31 Aug 17:32:56 17:40:29 38° 260° (W) 17:48:06 29.400- 29.500
Cosmos 2504 31 Aug 17:39:13 17:40:15 10° 66° (ENE) 17:41:18 435.465 / 435.565
HORYU 2 31 Aug 17:42:46 17:47:06 53° 74° (ENE) 17:51:27 437.375
NOAA 15 31 Aug 17:49:23 17:52:29 16° 64° (ENE) 17:55:36 137.62
STARS 31 Aug 17:50:22 17:54:39 52° 100° (E) 17:58:53 437.465
Cosmos 2491 31 Aug 17:50:33 17:57:55 32° 85° (E) 18:05:19 435.465 / 435.565
Cubesat XI-IV 31 Aug 17:53:02 17:55:27 13° 63° (ENE) 17:57:53 437.490
CUBESAT XI-V 31 Aug 17:59:56 18:03:35 22° 95° (E) 18:07:13 437.345
CUTE-I 31 Aug 18:02:27 18:05:44 17° 65° (ENE) 18:09:03 437.470
MOZHAYETS 4 31 Aug 18:04:34 18:08:44 35° 288° (WNW) 18:12:54
YUBILEINY 31 Aug 18:11:28 18:20:15 75° 83° (E) 18:28:55 435.215
BRITE-PL 31 Aug 18:12:29 18:17:07 44° 72° (ENE) 18:22:08 437.365/2234.400
BEESAT 2 31 Aug 18:42:41 18:46:15 30° 56° (NE) 18:49:49 435.950
DOVE 4 31 Aug 18:48:52 18:52:44 21° 68° (ENE) 18:56:39 437.250
BEESAT 3 31 Aug 18:51:23 18:55:22 83° 62° (ENE) 18:59:19 437.485
HO-68 31 Aug 18:55:04 18:56:21 11° 55° (NE) 18:57:39 435.675
LilacSat-2 31 Aug 18:56:00 18:59:44 50° 75° (ENE) 19:03:26 437.200
GOMX 1 31 Aug 19:03:18 19:08:22 66° 75° (ENE) 19:13:44 467.674
KKS-1 31 Aug 19:06:01 19:06:57 11° 295° (WNW) 19:07:53 437.445
NOAA 18 31 Aug 19:17:39 19:23:11 83° 75° (ENE) 19:28:44 137.9125
HORYU 2 31 Aug 19:22:45 19:23:54 11° 267° (W) 19:25:04 437.375
NOAA 15 31 Aug 19:26:38 19:31:45 55° 259° (W) 19:36:56 137.62
Cosmos 2504 31 Aug 19:27:29 19:34:41 84° 83° (E) 19:41:57 435.465 / 435.565
STARS 31 Aug 19:28:52 19:30:29 12° 295° (WNW) 19:32:07 437.465
Cubesat XI-IV 31 Aug 19:29:34 19:34:54 68° 259° (WSW) 19:40:13 437.490
CUBESAT XI-V 31 Aug 19:36:49 19:40:56 30° 289° (WNW) 19:45:02 437.345
CUTE-I 31 Aug 19:40:07 19:45:18 53° 259° (W) 19:50:31 437.470
Cosmos 2491 31 Aug 19:46:04 19:54:21 47° 282° (WNW) 20:02:43 435.465 / 435.565
BRITE-PL 31 Aug 19:52:34 19:55:50 18° 269° (W) 19:59:16 437.365/2234.400
CANX-2 31 Aug 20:02:19 20:05:36 22° 71° (ENE) 20:08:52 2200.000
CUTE 1.7 + AOD 2 31 Aug 20:07:31 20:10:46 22° 70° (ENE) 20:14:02 437.475
YUBILEINY 31 Aug 20:10:29 20:15:59 19° 280° (W) 20:21:28 435.215
BEESAT 2 31 Aug 20:21:07 20:23:49 18° 250° (WSW) 20:26:31 435.950
CUBEBUG 2 31 Aug 20:23:01 20:25:11 13° 67° (ENE) 20:27:21 437.445
DOVE 4 31 Aug 20:25:11 20:30:02 41° 262° (W) 20:35:03 437.250
CINEMA 3 31 Aug 20:32:37 20:37:35 68° 76° (ENE) 20:42:31 145.822/145.860
HO-68 31 Aug 20:35:38 20:42:46 69° 72° (ENE) 20:49:54 435.675
GOMX 1 31 Aug 20:44:49 20:46:54 12° 271° (W) 20:49:01 467.674
PCSat 31 Aug 21:02:38 21:07:53 48° 61° (ENE) 21:13:05 145.827
SEEDS 31 Aug 21:05:59 21:10:07 81° 78° (ENE) 21:14:18 437.485
STRAND 1 31 Aug 21:08:09 21:13:16 78° 284° (WNW) 21:18:22 437.568
Oscar 11 31 Aug 21:12:33 21:15:28 18° 69° (ENE) 21:18:24 145.826/435.025
AIST 1 31 Aug 21:19:36 21:23:57 61° 266° (W) 21:28:13
AAUSAT CUBESAT 2 31 Aug 21:23:51 21:27:55 68° 77° (ENE) 21:32:00 437.432
Cosmos 2504 31 Aug 21:24:29 21:26:59 12° 280° (W) 21:29:31 435.465 / 435.565
FUNcube-1 31 Aug 21:25:37 21:29:11 24° 71° (ENE) 21:32:41 145.935
AIST 2 31 Aug 21:32:21 21:36:34 86° 61° (ENE) 21:40:45 435.215
COMPASS 1 31 Aug 21:36:36 21:40:39 62° 259° (W) 21:44:45 437.405
CANX-2 31 Aug 21:37:57 21:41:18 23° 264° (W) 21:44:41 2200.000
CUTE 1.7 + AOD 2 31 Aug 21:43:05 21:46:28 23° 264° (W) 21:49:51 437.475
UWE-3 31 Aug 21:44:36 21:49:09 74° 77° (ENE) 21:53:36 435.000/436.395/437.385
ZACube-1 31 Aug 21:48:55 21:53:13 50° 75° (ENE) 21:57:25 437.345
CUBEBUG 2 31 Aug 21:56:49 22:01:22 51° 260° (W) 22:05:49 437.445
HUMSAT D 31 Aug 21:58:31 21:59:14 10° 66° (ENE) 21:59:56 437.325/437.525
PRISM 31 Aug 22:03:37 22:07:35 41° 99° (E) 22:11:32 437.425
CINEMA 3 31 Aug 22:13:47 22:15:02 11° 269° (W) 22:16:17 145.822/145.860
DELFI C3 31 Aug 22:23:41 22:27:27 47° 75° (ENE) 22:31:15 145.870
HO-68 31 Aug 22:26:15 22:30:55 18° 266° (W) 22:35:38 435.675
GONETS M04 31 Aug 22:28:47 22:35:17 22° 70° (ENE) 22:41:43
PCSat 31 Aug 22:47:11 22:50:49 19° 255° (WSW) 22:54:28 145.827
Oscar 11 31 Aug 22:47:32 22:51:21 31° 263° (W) 22:55:11 145.826/435.025
AUBIESAT-1 31 Aug 22:54:09 22:56:51 16° 62° (ENE) 22:59:32 437.475
SO-50 31 Aug 22:55:17 22:59:58 49° 115° (ESE) 23:04:39 436.795
FUNcube-1 31 Aug 23:01:44 23:05:18 24° 264° (W) 23:08:49 145.935
M-CUBED/EXP-1 PRIME 31 Aug 23:02:48 23:06:31 24° 65° (ENE) 23:10:15 437.505
ANTELSAT 31 Aug 23:17:54 23:21:32 27° 97° (E) 23:25:10 437.575/2403.000
ZACube-1 31 Aug 23:28:13 23:29:41 11° 267° (W) 23:31:08 437.345
HUMSAT D 31 Aug 23:30:19 23:34:22 52° 260° (W) 23:38:23 437.325/437.525
PRISM 31 Aug 23:40:27 23:42:29 13° 293° (WNW) 23:44:30 437.425
AISAT 31 Aug 23:41:03 23:43:37 15° 67° (ENE) 23:46:11 437.250
TIGRISAT 31 Aug 23:47:01 23:51:13 59° 101° (E) 23:55:24 435.000
ESTCUBE 1 31 Aug 23:50:41 23:54:45 35° 72° (ENE) 23:58:50 437.505/2401.250
PHONESAT 2.4 31 Aug 23:55:46 23:58:34 37° 149° (SSE) 00:01:23 2401.200-2431.200
POPSAT HIP 1 01 Sep 00:05:28 00:06:34 11° 92° (E) 00:07:39 437.405
JAS-2 01 Sep 00:08:44 00:11:56 13° 91° (E) 00:15:12 435.910
Cosmos 2499 01 Sep 00:10:39 00:17:45 80° 83° (E) 00:25:04 435.465 / 435.565
SPROUT 01 Sep 00:12:45 00:15:16 15° 68° (ENE) 00:17:48 437.525
CUBEBUG 1 01 Sep 00:15:35 00:19:44 43° 74° (ENE) 00:23:56 437.445
UNISAT 6 01 Sep 00:17:19 00:21:27 52° 286° (WNW) 00:25:35 437.425
CUSAT 1 01 Sep 00:20:21 00:23:07 34° 285° (WNW) 00:26:34 437.405
DANDE 01 Sep 00:20:34 00:22:56 33° 94° (E) 00:25:33 436.750
O/OREOS (USA 219) 01 Sep 00:21:21 00:25:57 73° 252° (WSW) 00:30:31 437.305
DUCHIFAT 1 01 Sep 00:25:50 00:28:43 18° 95° (E) 00:31:34 145.980
VELOX 1 01 Sep 00:25:55 00:30:10 46° 73° (ENE) 00:34:27 145.980
AUBIESAT-1 01 Sep 00:26:21 00:30:51 50° 256° (WSW) 00:35:20 437.475
DX 1 01 Sep 00:27:27 00:31:18 31° 71° (ENE) 00:35:11 434.975-435.025
